UAL1851 KONT-KSFO

Flight info

Callsign UAL1851
Flight time 0h 56m
Altitude 30000
Route SNSHN5 COREZ MAKRS SERFR SERFR4
Aircraft A320/M-SDE3FGHIRWY/LB1

Departure

Time 2026-05-07 17:50
Airport Ontario International Airport (KONT)

Arrival

Time 2026-05-07 18:46
Airport San Francisco International Airport (KSFO)
Time Latitude Longitude Altitude Speed Heading
2026-05-07 17:28 34.05993 -117.60003 945 ft 0 kts 58°
2026-05-07 17:39 34.05989 -117.60012 945 ft 4 kts 44°
2026-05-07 17:39 34.05970 -117.60018 942 ft 4 kts 339°
2026-05-07 17:39 34.05949 -117.60007 943 ft 4 kts 336°
2026-05-07 17:40 34.05924 -117.59993 944 ft 4 kts 332°
2026-05-07 17:40 34.05903 -117.59975 943 ft 4 kts 304°
2026-05-07 17:40 34.05897 -117.59951 943 ft 4 kts 270°
2026-05-07 17:40 34.05897 -117.59935 943 ft 0 kts 270°
2026-05-07 17:44 34.05897 -117.59948 943 ft 3 kts 270°
2026-05-07 17:44 34.05909 -117.59982 943 ft 6 kts 311°
2026-05-07 17:44 34.05895 -117.59995 945 ft 3 kts 144°
2026-05-07 17:45 34.05896 -117.59942 943 ft 10 kts 88°
2026-05-07 17:45 34.05897 -117.59843 944 ft 14 kts 90°
2026-05-07 17:45 34.05896 -117.59707 945 ft 18 kts 90°
2026-05-07 17:45 34.05896 -117.59541 944 ft 22 kts 89°
2026-05-07 17:46 34.05897 -117.59344 944 ft 25 kts 90°
2026-05-07 17:46 34.05897 -117.59122 945 ft 28 kts 90°
2026-05-07 17:46 34.05898 -117.58897 945 ft 25 kts 89°
2026-05-07 17:46 34.05898 -117.58683 945 ft 26 kts 90°
2026-05-07 17:47 34.05898 -117.58502 945 ft 20 kts 90°
2026-05-07 17:47 34.05898 -117.58317 945 ft 22 kts 90°
2026-05-07 17:47 34.05844 -117.58272 945 ft 7 kts 181°
2026-05-07 17:47 34.05792 -117.58273 945 ft 2 kts 180°
2026-05-07 17:48 34.05789 -117.58273 945 ft 2 kts 180°
2026-05-07 17:48 34.05762 -117.58272 945 ft 7 kts 180°
2026-05-07 17:49 34.05703 -117.58273 945 ft 10 kts 186°
2026-05-07 17:49 34.05689 -117.58314 946 ft 0 kts 271°
2026-05-07 17:49 34.05689 -117.58322 946 ft 2 kts 271°
2026-05-07 17:49 34.05690 -117.58362 947 ft 19 kts 271°
2026-05-07 17:50 34.05689 -117.58884 947 ft 101 kts 270°
2026-05-07 17:50 34.05690 -117.59995 949 ft 160 kts 270°
2026-05-07 17:50 34.05706 -117.61359 1639 ft 159 kts 271°
2026-05-07 17:50 34.05753 -117.62663 2479 ft 154 kts 272°
2026-05-07 17:51 34.05830 -117.63948 3230 ft 153 kts 275°
2026-05-07 17:51 34.05903 -117.65263 3702 ft 167 kts 270°
2026-05-07 17:51 34.05889 -117.66748 4102 ft 186 kts 269°
2026-05-07 17:51 34.05880 -117.68388 4526 ft 207 kts 270°
2026-05-07 17:52 34.05907 -117.70229 4919 ft 232 kts 275°
2026-05-07 17:52 34.06286 -117.72222 5416 ft 257 kts 285°
2026-05-07 17:52 34.06791 -117.74372 6128 ft 273 kts 286°
2026-05-07 17:52 34.07323 -117.76597 7050 ft 279 kts 287°
2026-05-07 17:53 34.08072 -117.78782 7717 ft 286 kts 301°
2026-05-07 17:53 34.09287 -117.80657 8503 ft 288 kts 314°
2026-05-07 17:53 34.10659 -117.82426 9562 ft 290 kts 315°
2026-05-07 17:53 34.12017 -117.84258 10462 ft 298 kts 310°
2026-05-07 17:54 34.13297 -117.86361 10882 ft 321 kts 307°
2026-05-07 17:54 34.14611 -117.88590 11610 ft 329 kts 307°
2026-05-07 17:54 34.15940 -117.90869 12406 ft 335 kts 307°
2026-05-07 17:54 34.17289 -117.93185 13212 ft 339 kts 307°
2026-05-07 17:55 34.18660 -117.95534 13801 ft 345 kts 307°
2026-05-07 17:55 34.20045 -117.97902 13975 ft 346 kts 308°
2026-05-07 17:55 34.21437 -118.00275 14016 ft 346 kts 308°
2026-05-07 17:55 34.22831 -118.02643 14018 ft 345 kts 308°
2026-05-07 17:56 34.24225 -118.05006 14048 ft 348 kts 308°
2026-05-07 17:56 34.25641 -118.07409 14752 ft 351 kts 308°
2026-05-07 17:56 34.27059 -118.09825 15588 ft 353 kts 308°
2026-05-07 17:56 34.28491 -118.12248 16351 ft 356 kts 309°
2026-05-07 17:57 34.29980 -118.14658 17110 ft 359 kts 310°
2026-05-07 17:57 34.30992 -118.16252 17594 ft 362 kts 310°
2026-05-07 17:57 34.33078 -118.19496 18529 ft 368 kts 311°
2026-05-07 17:57 34.34660 -118.21950 19214 ft 372 kts 311°
2026-05-07 17:58 34.36252 -118.24429 19928 ft 375 kts 311°
2026-05-07 17:58 34.37852 -118.26936 20628 ft 378 kts 311°
2026-05-07 17:58 34.39461 -118.29473 21301 ft 381 kts 310°
2026-05-07 17:58 34.41077 -118.32035 21939 ft 385 kts 310°
2026-05-07 17:59 34.42705 -118.34623 22562 ft 388 kts 310°
2026-05-07 17:59 34.44347 -118.37237 23162 ft 391 kts 310°
2026-05-07 17:59 34.46004 -118.39875 23769 ft 395 kts 310°
2026-05-07 17:59 34.47679 -118.42539 24316 ft 399 kts 310°
2026-05-07 18:00 34.49366 -118.45222 24869 ft 402 kts 310°
2026-05-07 18:00 34.51036 -118.47877 25405 ft 405 kts 310°
2026-05-07 18:00 34.52759 -118.50616 25932 ft 408 kts 310°
2026-05-07 18:00 34.54484 -118.53363 26438 ft 411 kts 309°
2026-05-07 18:01 34.56222 -118.56135 26940 ft 414 kts 309°
2026-05-07 18:01 34.57975 -118.58927 27440 ft 417 kts 309°
2026-05-07 18:01 34.59742 -118.61739 27928 ft 420 kts 309°
2026-05-07 18:01 34.61516 -118.64571 28410 ft 423 kts 309°
2026-05-07 18:02 34.65100 -118.70316 29354 ft 430 kts 309°
2026-05-07 18:02 34.66910 -118.73220 29830 ft 433 kts 309°
2026-05-07 18:02 34.68732 -118.76146 30068 ft 434 kts 309°
2026-05-07 18:03 34.70523 -118.79025 30097 ft 418 kts 309°
2026-05-07 18:03 34.72242 -118.81789 30094 ft 402 kts 309°
2026-05-07 18:03 34.73926 -118.84496 30099 ft 408 kts 309°
2026-05-07 18:03 34.75677 -118.87302 30103 ft 424 kts 309°
2026-05-07 18:04 34.77492 -118.90202 30103 ft 435 kts 310°
2026-05-07 18:04 34.81931 -118.95192 30108 ft 436 kts 328°
2026-05-07 18:05 34.87140 -118.98946 30110 ft 435 kts 331°
2026-05-07 18:05 34.92347 -119.02679 30105 ft 434 kts 331°
2026-05-07 18:06 34.97555 -119.06414 30102 ft 434 kts 331°
2026-05-07 18:06 35.02770 -119.10152 30096 ft 435 kts 331°
2026-05-07 18:07 35.07990 -119.13900 30093 ft 436 kts 331°
2026-05-07 18:07 35.13214 -119.17660 30092 ft 436 kts 331°
2026-05-07 18:08 35.17559 -119.20787 30094 ft 436 kts 331°
2026-05-07 18:08 35.22801 -119.24556 30090 ft 438 kts 331°
2026-05-07 18:09 35.28903 -119.28956 30092 ft 438 kts 330°
2026-05-07 18:09 35.33299 -119.32141 30100 ft 438 kts 330°
2026-05-07 18:10 35.38550 -119.35942 30103 ft 439 kts 330°
2026-05-07 18:10 35.43807 -119.39758 30108 ft 440 kts 330°
2026-05-07 18:11 35.49070 -119.43589 30116 ft 440 kts 330°
2026-05-07 18:11 35.53719 -119.48454 30123 ft 443 kts 309°
2026-05-07 18:11 35.55386 -119.51580 30121 ft 445 kts 298°
2026-05-07 18:12 35.56563 -119.55094 30110 ft 447 kts 287°
2026-05-07 18:12 35.57788 -119.62580 30125 ft 447 kts 281°
2026-05-07 18:13 35.58907 -119.70098 30129 ft 447 kts 281°
2026-05-07 18:13 35.60027 -119.77615 30136 ft 447 kts 281°
2026-05-07 18:14 35.61141 -119.85134 30135 ft 447 kts 281°
2026-05-07 18:14 35.62245 -119.92652 30145 ft 447 kts 281°
2026-05-07 18:15 35.63340 -120.00169 30148 ft 447 kts 281°
2026-05-07 18:15 35.64431 -120.07689 30144 ft 447 kts 281°
2026-05-07 18:16 35.65521 -120.15210 30153 ft 447 kts 281°
2026-05-07 18:16 35.66608 -120.22721 30165 ft 446 kts 281°
2026-05-07 18:17 35.67681 -120.30221 30172 ft 445 kts 281°
2026-05-07 18:17 35.69439 -120.37461 30174 ft 442 kts 296°
2026-05-07 18:18 35.72079 -120.44280 30164 ft 441 kts 296°
2026-05-07 18:18 35.74691 -120.51110 30175 ft 441 kts 296°
2026-05-07 18:19 35.77287 -120.57951 30174 ft 441 kts 296°
2026-05-07 18:19 35.79885 -120.64786 30165 ft 441 kts 296°
2026-05-07 18:20 35.82467 -120.71579 30166 ft 441 kts 296°
2026-05-07 18:20 35.85061 -120.78428 30158 ft 441 kts 296°
2026-05-07 18:21 35.87675 -120.85334 30142 ft 442 kts 296°
2026-05-07 18:21 35.90254 -120.92164 30141 ft 442 kts 296°
2026-05-07 18:22 35.92847 -120.99044 30152 ft 442 kts 296°
2026-05-07 18:22 35.95255 -121.05461 30165 ft 441 kts 296°
2026-05-07 18:23 35.97831 -121.12322 30156 ft 441 kts 296°
2026-05-07 18:23 36.00407 -121.19191 30153 ft 441 kts 295°
2026-05-07 18:24 36.02970 -121.26071 30155 ft 441 kts 296°
2026-05-07 18:24 36.05640 -121.32873 30168 ft 439 kts 303°
2026-05-07 18:25 36.09635 -121.38480 30162 ft 435 kts 322°
2026-05-07 18:25 36.14695 -121.42560 30167 ft 434 kts 328°
2026-05-07 18:26 36.19807 -121.46552 30169 ft 435 kts 328°
2026-05-07 18:26 36.24916 -121.50564 29971 ft 435 kts 328°
2026-05-07 18:26 36.27471 -121.52573 29691 ft 435 kts 328°
2026-05-07 18:27 36.30025 -121.54576 29425 ft 433 kts 328°
2026-05-07 18:27 36.32555 -121.56561 29153 ft 428 kts 328°
2026-05-07 18:27 36.35057 -121.58524 28792 ft 423 kts 328°
2026-05-07 18:27 36.37533 -121.60467 28142 ft 419 kts 328°
2026-05-07 18:28 36.39989 -121.62394 27516 ft 416 kts 328°
2026-05-07 18:28 36.42424 -121.64307 26901 ft 413 kts 328°
2026-05-07 18:28 36.44842 -121.66208 26301 ft 410 kts 328°
2026-05-07 18:28 36.47246 -121.68101 25693 ft 408 kts 328°
2026-05-07 18:29 36.49634 -121.69986 25100 ft 406 kts 328°
2026-05-07 18:29 36.52014 -121.71867 24510 ft 405 kts 328°
2026-05-07 18:29 36.54375 -121.73734 24082 ft 400 kts 328°
2026-05-07 18:29 36.56725 -121.75593 23441 ft 400 kts 328°
2026-05-07 18:30 36.59056 -121.77438 23017 ft 394 kts 328°
2026-05-07 18:30 36.61362 -121.79263 22454 ft 392 kts 328°
2026-05-07 18:30 36.63657 -121.81079 21945 ft 390 kts 328°
2026-05-07 18:30 36.65903 -121.82858 21455 ft 386 kts 328°
2026-05-07 18:31 36.68157 -121.84646 20940 ft 383 kts 328°
2026-05-07 18:31 36.70391 -121.86426 20435 ft 379 kts 328°
2026-05-07 18:31 36.72613 -121.88180 19936 ft 377 kts 330°
2026-05-07 18:31 36.73389 -121.88705 19765 ft 375 kts 334°
2026-05-07 18:32 36.75054 -121.89579 19417 ft 372 kts 342°
2026-05-07 18:33 36.77550 -121.90378 18877 ft 369 kts 348°
2026-05-07 18:33 36.80055 -121.91066 18301 ft 368 kts 348°
2026-05-07 18:33 36.82546 -121.91750 17693 ft 365 kts 348°
2026-05-07 18:33 36.85018 -121.92437 17108 ft 363 kts 347°
2026-05-07 18:34 36.87470 -121.93124 16537 ft 360 kts 347°
2026-05-07 18:34 36.89907 -121.93809 15998 ft 357 kts 347°
2026-05-07 18:34 36.92314 -121.94485 15539 ft 353 kts 347°
2026-05-07 18:34 36.94704 -121.95155 15086 ft 351 kts 347°
2026-05-07 18:35 36.97068 -121.95906 14435 ft 353 kts 344°
2026-05-07 18:35 36.99434 -121.96791 13847 ft 353 kts 342°
2026-05-07 18:35 37.01757 -121.97730 13296 ft 350 kts 341°
2026-05-07 18:35 37.04063 -121.98684 12716 ft 348 kts 341°
2026-05-07 18:36 37.06360 -121.99627 12155 ft 346 kts 341°
2026-05-07 18:36 37.08645 -122.00550 11617 ft 344 kts 341°
2026-05-07 18:36 37.10905 -122.01446 11291 ft 336 kts 341°
2026-05-07 18:36 37.13092 -122.02302 11170 ft 323 kts 342°
2026-05-07 18:37 37.15196 -122.03121 11030 ft 311 kts 341°
2026-05-07 18:37 37.17243 -122.03918 10748 ft 306 kts 341°
2026-05-07 18:37 37.19271 -122.04711 10423 ft 304 kts 341°
2026-05-07 18:37 37.21256 -122.05488 10272 ft 295 kts 341°
2026-05-07 18:38 37.23199 -122.06250 9982 ft 291 kts 341°
2026-05-07 18:38 37.25128 -122.07006 9628 ft 290 kts 341°
2026-05-07 18:38 37.27037 -122.07755 9296 ft 288 kts 341°
2026-05-07 18:38 37.28940 -122.08504 8942 ft 286 kts 340°
2026-05-07 18:39 37.30832 -122.09250 8624 ft 284 kts 341°
2026-05-07 18:39 37.32711 -122.09990 8302 ft 282 kts 340°
2026-05-07 18:39 37.34576 -122.10722 7991 ft 280 kts 340°
2026-05-07 18:39 37.36429 -122.11450 7662 ft 279 kts 340°
2026-05-07 18:40 37.38277 -122.12172 7270 ft 279 kts 341°
2026-05-07 18:40 37.40191 -122.12863 6551 ft 293 kts 342°
2026-05-07 18:40 37.42156 -122.13536 5772 ft 292 kts 343°
2026-05-07 18:40 37.44109 -122.14188 5024 ft 289 kts 343°
2026-05-07 18:41 37.46025 -122.14826 4476 ft 279 kts 344°
2026-05-07 18:41 37.47852 -122.15436 4117 ft 264 kts 343°
2026-05-07 18:41 37.49556 -122.16012 3999 ft 242 kts 344°
2026-05-07 18:41 37.51088 -122.16538 4008 ft 226 kts 343°
2026-05-07 18:42 37.52546 -122.17161 3970 ft 225 kts 331°
2026-05-07 18:42 37.53765 -122.18409 3625 ft 224 kts 307°
2026-05-07 18:42 37.54553 -122.20098 3258 ft 224 kts 297°
2026-05-07 18:42 37.55257 -122.21779 2813 ft 209 kts 297°
2026-05-07 18:43 37.55920 -122.23354 2356 ft 198 kts 297°
2026-05-07 18:43 37.56537 -122.24819 1995 ft 181 kts 296°
2026-05-07 18:43 37.57108 -122.26172 1724 ft 169 kts 296°
2026-05-07 18:43 37.57637 -122.27428 1495 ft 161 kts 297°
2026-05-07 18:44 37.58147 -122.28640 1300 ft 150 kts 296°
2026-05-07 18:44 37.58612 -122.29745 1092 ft 136 kts 297°
2026-05-07 18:44 37.59046 -122.30778 930 ft 132 kts 296°
2026-05-07 18:44 37.59462 -122.31767 774 ft 126 kts 297°
2026-05-07 18:45 37.59868 -122.32731 611 ft 123 kts 298°
2026-05-07 18:45 37.60263 -122.33673 427 ft 120 kts 298°
2026-05-07 18:45 37.60647 -122.34597 263 ft 118 kts 298°
2026-05-07 18:45 37.61030 -122.35506 125 ft 118 kts 299°
2026-05-07 18:46 37.61413 -122.36414 27 ft 112 kts 299°
2026-05-07 18:46 37.61708 -122.37110 22 ft 67 kts 297°
2026-05-07 18:46 37.61902 -122.37576 22 ft 54 kts 297°
2026-05-07 18:46 37.62004 -122.37856 22 ft 15 kts 269°
2026-05-07 18:47 37.61949 -122.37967 24 ft 13 kts 246°
2026-05-07 18:47 37.61986 -122.38075 24 ft 16 kts 301°
2026-05-07 18:47 37.62048 -122.38212 22 ft 20 kts 297°
2026-05-07 18:47 37.62011 -122.38291 22 ft 13 kts 158°
2026-05-07 18:48 37.61937 -122.38235 22 ft 13 kts 195°
2026-05-07 18:48 37.61892 -122.38253 22 ft 8 kts 197°
2026-05-07 18:48 37.61855 -122.38228 23 ft 6 kts 136°
2026-05-07 18:48 37.61837 -122.38208 22 ft 2 kts 138°
2026-05-07 18:49 37.61832 -122.38201 25 ft 0 kts 139°